• In Uzbekistan
  • List of Countries
  • For 7 days
  • Water Temperature
  • Satellite Maps
  • Weather Map
  • Weather Widgets
  • user-avatar
    Login

    Hourly Weather Abovyan

    Today, 25 May, Thursday

    Time Temperature Precipitation Wind Pressure Humidity
    00:00 +11°C° 0.1 mm 1 mps 669 mmHg 82%
    01:00 +10°C° 0 mm 1 mps 669 mmHg 82%
    02:00 +9°C° 0 mm 1 mps 669 mmHg 83%
    03:00 +9°C° 0 mm 1 mps 668 mmHg 84%
    04:00 +10°C° 0 mm 1 mps 669 mmHg 80%
    05:00 +11°C° 0 mm 1 mps 669 mmHg 76%
    06:00 +12°C° 0 mm 1 mps 670 mmHg 71%
    07:00 +14°C° 0.1 mm 1 mps 670 mmHg 65%
    08:00 +16°C° 0.1 mm 2 mps 671 mmHg 58%
    09:00 +18°C° 0.1 mm 2 mps 671 mmHg 51%
    10:00 +19°C° 0.1 mm 2 mps 671 mmHg 47%
    11:00 +20°C° 0.1 mm 2 mps 671 mmHg 43%
    12:00 +22°C° 0.1 mm 3 mps 671 mmHg 38%
    13:00 +22°C° 0.1 mm 3 mps 671 mmHg 38%
    14:00 +22°C° 0.1 mm 3 mps 671 mmHg 37%
    15:00 +22°C° 0.1 mm 3 mps 671 mmHg 37%
    16:00 +23°C° 0.2 mm 2 mps 671 mmHg 41%
    17:00 +21°C° 0.2 mm 2 mps 671 mmHg 45%
    18:00 +21°C° 0.2 mm 1 mps 671 mmHg 49%
    19:00 +19°C° 0.1 mm 1 mps 671 mmHg 55%
    20:00 +15°C° 0.1 mm 1 mps 671 mmHg 60%
    21:00 +13°C° 0.1 mm 1 mps 671 mmHg 65%
    22:00 +13°C° 0 mm 1 mps 671 mmHg 68%
    23:00 +12°C° 0 mm 1 mps 671 mmHg 70%

    Tomorrow, 26 May, Friday

    Time Temperature Precipitation Wind Pressure Humidity
    00:00 +11°C° 0 mm 1 mps 671 mmHg 72%
    01:00 +11°C° 0 mm 1 mps 670 mmHg 73%
    02:00 +10°C° 0 mm 1 mps 670 mmHg 74%
    03:00 +10°C° 0 mm 1 mps 670 mmHg 74%
    04:00 +11°C° 0 mm 1 mps 671 mmHg 71%
    05:00 +13°C° 0 mm 1 mps 671 mmHg 67%
    06:00 +14°C° 0 mm 1 mps 672 mmHg 63%
    07:00 +16°C° 0 mm 1 mps 672 mmHg 55%
    08:00 +19°C° 0 mm 1 mps 672 mmHg 46%
    09:00 +20°C° 0 mm 2 mps 672 mmHg 37%
    10:00 +21°C° 0 mm 2 mps 672 mmHg 34%
    11:00 +24°C° 0 mm 2 mps 672 mmHg 32%
    12:00 +25°C° 0 mm 3 mps 672 mmHg 30%
    13:00 +25°C° 0 mm 3 mps 671 mmHg 31%
    14:00 +25°C° 0 mm 3 mps 671 mmHg 32%
    15:00 +25°C° 0 mm 3 mps 671 mmHg 33%
    16:00 +24°C° 0.3 mm 2 mps 671 mmHg 38%
    17:00 +23°C° 0.3 mm 2 mps 671 mmHg 43%
    18:00 +22°C° 0.3 mm 1 mps 670 mmHg 49%
    19:00 +20°C° 0.2 mm 1 mps 670 mmHg 53%
    20:00 +18°C° 0.2 mm 1 mps 670 mmHg 57%
    21:00 +15°C° 0.2 mm 1 mps 670 mmHg 61%
    22:00 +14°C° 0.1 mm 1 mps 670 mmHg 64%
    23:00 +13°C° 0.1 mm 1 mps 669 mmHg 67%

    Day after tomorrow, 27 May, Saturday

    Time Temperature Precipitation Wind Pressure Humidity
    00:00 +12°C° 0.1 mm 1 mps 669 mmHg 70%
    01:00 +12°C° 0 mm 1 mps 669 mmHg 70%
    02:00 +11°C° 0 mm 1 mps 669 mmHg 71%
    03:00 +11°C° 0 mm 1 mps 668 mmHg 72%
    04:00 +12°C° 0.1 mm 1 mps 669 mmHg 68%
    05:00 +14°C° 0.1 mm 1 mps 669 mmHg 65%
    06:00 +15°C° 0.1 mm 1 mps 670 mmHg 61%
    07:00 +16°C° 0.2 mm 1 mps 670 mmHg 57%
    08:00 +18°C° 0.2 mm 2 mps 670 mmHg 53%
    09:00 +19°C° 0.2 mm 2 mps 670 mmHg 49%
    10:00 +21°C° 0.1 mm 2 mps 670 mmHg 45%
    11:00 +24°C° 0.1 mm 3 mps 670 mmHg 40%
    12:00 +26°C° 0.1 mm 3 mps 670 mmHg 36%
    13:00 +26°C° 0.4 mm 3 mps 669 mmHg 38%
    14:00 +26°C° 0.4 mm 3 mps 669 mmHg 39%
    15:00 +26°C° 0.4 mm 3 mps 668 mmHg 41%
    16:00 +25°C° 0.5 mm 2 mps 668 mmHg 44%
    17:00 +24°C° 0.5 mm 2 mps 668 mmHg 48%
    18:00 +24°C° 0.5 mm 1 mps 668 mmHg 51%
    19:00 +21°C° 0.2 mm 1 mps 668 mmHg 57%
    20:00 +18°C° 0.2 mm 1 mps 667 mmHg 62%
    21:00 +14°C° 0.2 mm 1 mps 667 mmHg 68%
    22:00 +14°C° 0 mm 1 mps 667 mmHg 70%
    23:00 +13°C° 0 mm 1 mps 667 mmHg 71%

    28 May, Sunday

    Time Temperature Precipitation Wind Pressure Humidity
    00:00 +12°C° 0 mm 1 mps 667 mmHg 72%
    01:00 +12°C° 0 mm 1 mps 667 mmHg 73%
    02:00 +12°C° 0 mm 1 mps 667 mmHg 73%
    03:00 +12°C° 0 mm 1 mps 667 mmHg 73%
    04:00 +13°C° 0 mm 1 mps 668 mmHg 71%
    05:00 +14°C° 0 mm 1 mps 668 mmHg 68%
    06:00 +15°C° 0 mm 1 mps 669 mmHg 66%
    07:00 +19°C° 0 mm 1 mps 669 mmHg 57%
    08:00 +20°C° 0 mm 2 mps 670 mmHg 48%
    09:00 +22°C° 0 mm 3 mps 670 mmHg 38%
    10:00 +25°C° 0 mm 3 mps 670 mmHg 35%
    11:00 +26°C° 0 mm 4 mps 670 mmHg 31%
    12:00 +27°C° 0 mm 5 mps 670 mmHg 27%
    13:00 +27°C° 0.1 mm 5 mps 670 mmHg 28%
    14:00 +27°C° 0.1 mm 6 mps 669 mmHg 28%
    15:00 +27°C° 0.1 mm 6 mps 669 mmHg 28%
    16:00 +26°C° 0.1 mm 6 mps 669 mmHg 32%
    17:00 +25°C° 0.1 mm 5 mps 670 mmHg 36%
    18:00 +23°C° 0.1 mm 5 mps 670 mmHg 40%
    19:00 +20°C° 0.1 mm 4 mps 670 mmHg 49%
    20:00 +17°C° 0.1 mm 3 mps 670 mmHg 59%
    21:00 +14°C° 0.1 mm 2 mps 670 mmHg 68%
    22:00 +14°C° 0 mm 2 mps 670 mmHg 70%
    23:00 +13°C° 0 mm 2 mps 670 mmHg 72%

    29 May, Monday

    Time Temperature Precipitation Wind Pressure Humidity
    00:00 +13°C° 0 mm 1 mps 671 mmHg 73%
    01:00 +12°C° 0 mm 1 mps 670 mmHg 74%
    02:00 +11°C° 0 mm 1 mps 670 mmHg 75%
    03:00 +11°C° 0 mm 1 mps 670 mmHg 76%
    04:00 +12°C° 0 mm 1 mps 671 mmHg 73%
    05:00 +13°C° 0 mm 1 mps 671 mmHg 69%
    06:00 +14°C° 0 mm 1 mps 672 mmHg 65%
    07:00 +18°C° 0 mm 1 mps 672 mmHg 57%
    08:00 +20°C° 0 mm 1 mps 672 mmHg 50%
    09:00 +22°C° 0 mm 1 mps 673 mmHg 42%
    10:00 +23°C° 0.1 mm 2 mps 673 mmHg 40%
    11:00 +25°C° 0.1 mm 2 mps 673 mmHg 37%
    12:00 +26°C° 0.1 mm 2 mps 673 mmHg 34%
    13:00 +26°C° 0.3 mm 2 mps 673 mmHg 36%
    14:00 +26°C° 0.3 mm 2 mps 673 mmHg 37%
    15:00 +26°C° 0.3 mm 2 mps 672 mmHg 39%
    16:00 +25°C° 0.5 mm 2 mps 672 mmHg 44%
    17:00 +24°C° 0.5 mm 2 mps 672 mmHg 49%
    18:00 +23°C° 0.5 mm 2 mps 672 mmHg 55%
    19:00 +20°C° 0.2 mm 2 mps 672 mmHg 61%
    20:00 +18°C° 0.2 mm 2 mps 672 mmHg 68%
    21:00 +16°C° 0.2 mm 2 mps 673 mmHg 74%
    22:00 +15°C° 0.1 mm 2 mps 673 mmHg 76%
    23:00 +15°C° 0.1 mm 2 mps 673 mmHg 78%

    30 May, Tuesday

    Time Temperature Precipitation Wind Pressure Humidity
    00:00 +14°C° 0.1 mm 2 mps 673 mmHg 81%
    01:00 +14°C° 0 mm 2 mps 672 mmHg 81%
    02:00 +14°C° 0 mm 2 mps 672 mmHg 82%
    03:00 +13°C° 0 mm 2 mps 672 mmHg 83%
    04:00 +14°C° 0 mm 1 mps 672 mmHg 80%
    05:00 +15°C° 0 mm 1 mps 672 mmHg 78%
    06:00 +15°C° 0 mm 1 mps 673 mmHg 76%
    07:00 +19°C° 0 mm 1 mps 673 mmHg 66%
    08:00 +21°C° 0 mm 1 mps 673 mmHg 55%
    09:00 +23°C° 0 mm 1 mps 673 mmHg 45%
    10:00 +25°C° 0.1 mm 2 mps 673 mmHg 41%
    11:00 +26°C° 0.1 mm 2 mps 673 mmHg 37%
    12:00 +27°C° 0.1 mm 3 mps 673 mmHg 33%
    13:00 +27°C° 0.3 mm 3 mps 673 mmHg 34%
    14:00 +27°C° 0.3 mm 3 mps 672 mmHg 34%
    15:00 +27°C° 0.3 mm 3 mps 672 mmHg 35%
    16:00 +27°C° 0.2 mm 2 mps 672 mmHg 38%
    17:00 +26°C° 0.2 mm 2 mps 672 mmHg 41%
    18:00 +26°C° 0.2 mm 1 mps 672 mmHg 44%
    19:00 +23°C° 0.2 mm 1 mps 672 mmHg 50%
    20:00 +19°C° 0.2 mm 2 mps 672 mmHg 57%
    21:00 +16°C° 0.2 mm 2 mps 671 mmHg 63%
    22:00 +15°C° 0.1 mm 2 mps 671 mmHg 65%
    23:00 +15°C° 0.1 mm 1 mps 671 mmHg 66%
    Show more